This is the latest recevied weather packets stored in our database for station/object DB0DUS-10. If no packets are shown the sender has not sent any weather packets the latest 10 day(s).
| Time | Temp. | Humidity | Pressure | Rain* | Wind** | Luminosity | Snow |
|---|---|---|---|---|---|---|---|
| 1777403599 | 15.56° C | 40% | 1022.2 hPa | 0 mm | - | - | - |
| 1777403299 | 15.56° C | 39% | 1022.2 hPa | 0 mm | - | - | - |
| 1777402100 | 16.11° C | 38% | 1022 hPa | 0 mm | - | - | - |
| 1777401499 | 16.67° C | 38% | 1021.9 hPa | 0 mm | - | - | - |
| 1777400600 | 17.22° C | 37% | 1021.7 hPa | 0 mm | - | - | - |
| 1777399699 | 17.78° C | 35% | 1021.5 hPa | 0 mm | - | - | - |
| 1777399099 | 17.78° C | 35% | 1021.4 hPa | 0 mm | - | - | - |
| 1777397899 | 18.33° C | 35% | 1021.3 hPa | 0 mm | - | - | - |
| 1777397600 | 18.33° C | 35% | 1021.2 hPa | 0 mm | - | - | - |
| 1777396099 | 18.89° C | 33% | 1020.9 hPa | 0 mm | - | - | - |
| 1777394600 | 20° C | 32% | 1020.9 hPa | 0 mm | - | - | - |
| 1777394299 | 20° C | 32% | 1020.9 hPa | 0 mm | - | - | - |
| 1777393100 | 20° C | 31% | 1020.8 hPa | 0 mm | - | - | - |
| 1777392499 | 20.56° C | 31% | 1020.8 hPa | 0 mm | - | - | - |
| 1777391600 | 20.56° C | 30% | 1020.8 hPa | 0 mm | - | - | - |
| 1777390699 | 21.67° C | 27% | 1020.7 hPa | 0 mm | - | - | - |
| 1777390100 | 22.22° C | 27% | 1020.7 hPa | 0 mm | - | - | - |
| 1777388899 | 21.67° C | 27% | 1020.7 hPa | 0 mm | - | - | - |
| 1777388600 | 21.67° C | 26% | 1020.7 hPa | 0 mm | - | - | - |
| 1777387099 | 23.33° C | 25% | 1020.9 hPa | 0 mm | - | - | - |
| 1777385600 | 23.33° C | 25% | 1021.1 hPa | 0 mm | - | - | - |
| 1777385299 | 23.33° C | 24% | 1021.1 hPa | 0 mm | - | - | - |
| 1777384100 | 23.89° C | 24% | 1021.1 hPa | 0 mm | - | - | - |
| 1777383499 | 24.44° C | 23% | 1021.3 hPa | 0 mm | - | - | - |
| 1777382600 | 24.44° C | 24% | 1021.3 hPa | 0 mm | - | - | - |
* Rain latest hour (hover to see other rain measurements)
** Current wind speed in m/s (hover to see current wind gust speed)